Location: Calvatone
(45.1167°N, 10.4333°E)
Time: 10:55:24
(UTC+00:00)

AO-85 - Pass Details

Date: 11 December 2023
Orbit: 516 x 753 km, 64.8° (Epoch: 04 January)

Event Time Altitude Azimuth Distance (km) Brightness Sun altitude
Rises 17:15:00 0° 331° (NNW) 2,862 ? -16.7°
Reaches altitude 10° 17:17:34 10° 346° (NNW) 1,997 ? -17.1°
Enters shadow 17:20:49 24° 31° (NNE) 1,326 ? -17.7°
